| time (UTC) | temp F | wind direction | speed knots | gust knots | rain 1hr in | rain 24hr in | rain mn in | humidity % | barometer mb |
| 20260502200057 | 67 | 0.0 | 0.0 | 0.00 | 0.00 | 0.00 | 57 | 1016.8 | |
| 20260502195017 | 67 | 0.0 | 0.0 | 0.00 | 0.00 | 0.00 | 56 | 1016.8 | |
| 20260502194017 | 67 | 0.0 | 0.0 | 0.00 | 0.00 | 0.00 | 56 | 1016.8 | |
| 20260502193017 | 67 | 0.0 | 0.0 | 0.00 | 0.00 | 0.00 | 55 | 1016.6 | |
| 20260502192017 | 67 | 0.0 | 0.0 | 0.00 | 0.00 | 0.00 | 54 | 1016.5 | |
| 20260502191017 | 68 | 0.0 | 0.0 | 0.00 | 0.00 | 0.00 | 52 | 1016.6 | |
| 20260502190016 | 68 | 0.0 | 0.0 | 0.00 | 0.00 | 0.00 | 53 | 1016.4 | |
| 20260502185036 | 69 | 0.0 | 0.0 | 0.00 | 0.00 | 0.00 | 50 | 1016.4 | |
| 20260502184037 | 69 | 0.0 | 0.0 | 0.00 | 0.00 | 0.00 | 50 | 1016.3 | |
| 20260502182057 | 71 | 0.0 | 0.0 | 0.00 | 0.00 | 0.00 | 50 | 1016.3 | |
| 20260502181016 | 71 | 0.0 | 0.0 | 0.00 | 0.00 | 0.00 | 50 | 1016.2 | |
| 20260502164016 | 78 | 0.0 | 0.0 | 0.00 | 0.00 | 0.00 | 46 | 1016.6 | |
| 20260502163016 | 78 | 0.0 | 0.0 | 0.00 | 0.00 | 0.00 | 40 | 1016.7 | |
| 20260502162016 | 80 | 0.0 | 0.0 | 0.00 | 0.00 | 0.00 | 37 | 1017.0 | |
| 20260502161016 | 81 | 0.0 | 0.0 | 0.00 | 0.00 | 0.00 | 35 | 1017.2 | |
| 20260502160200 | 81 | 0.0 | 0.0 | 0.00 | 0.00 | 0.00 | 35 | 1017.4 | |
| 20260502152016 | 82 | 0.0 | 0.0 | 0.00 | 0.00 | 0.00 | 35 | 1017.7 | |
| 20260502151016 | 81 | 0.0 | 0.0 | 0.00 | 0.00 | 0.00 | 37 | 1017.8 | |
| 20260502123119 | 77 | 0.0 | 0.0 | 0.00 | 0.00 | 0.00 | 41 | 1020.3 | |
| 20260502122016 | 77 | 0.0 | 0.0 | 0.00 | 0.00 | 0.00 | 41 | 1020.3 | |
| 20260502121016 | 76 | 0.0 | 0.0 | 0.00 | 0.00 | 0.00 | 41 | 1020.4 | |
| 20260502115056 | 76 | 0.0 | 0.0 | 0.00 | 0.00 | 0.00 | 43 | 1020.7 | |
| 20260502114016 | 75 | 0.0 | 0.0 | 0.00 | 0.00 | 0.00 | 43 | 1020.8 | |
| 20260502113059 | 75 | 0.0 | 0.0 | 0.00 | 0.00 | 0.00 | 44 | 1021.0 | |
| 20260502112016 | 75 | 0.0 | 0.0 | 0.00 | 0.00 | 0.00 | 48 | 1021.0 | |
| 20260502111038 | 74 | 0.0 | 0.0 | 0.00 | 0.00 | 0.00 | 46 | 1021.1 | |
| 20260502110016 | 74 | 0.0 | 0.0 | 0.00 | 0.00 | 0.00 | 47 | 1021.3 | |
| 20260502105016 | 74 | 0.0 | 0.0 | 0.00 | 0.00 | 0.00 | 48 | 1021.3 | |
| 20260502104016 | 73 | 0.0 | 0.0 | 0.00 | 0.00 | 0.00 | 48 | 1021.5 | |
| 20260502103016 | 73 | 0.0 | 0.0 | 0.00 | 0.00 | 0.00 | 47 | 1021.5 | |
| 20260502102016 | 73 | 0.0 | 0.0 | 0.00 | 0.00 | 0.00 | 48 | 1021.7 | |
| 20260502101139 | 73 | 0.0 | 0.0 | 0.00 | 0.00 | 0.00 | 48 | 1021.8 | |
| 20260502091017 | 68 | 0.0 | 0.0 | 0.00 | 0.00 | 0.00 | 52 | 1022.2 | |
| 20260502071015 | 62 | 0.0 | 0.0 | 0.00 | 0.00 | 0.00 | 59 | 1022.6 | |
| 20260502070036 | 61 | 0.0 | 0.0 | 0.00 | 0.00 | 0.00 | 57 | 1022.6 | |
| 20260502065119 | 59 | 0.0 | 0.0 | 0.00 | 0.00 | 0.00 | 59 | 1022.7 | |
| 20260502064035 | 59 | 0.0 | 0.0 | 0.00 | 0.00 | 0.00 | 59 | 1022.7 | |
| 20260502063116 | 59 | 0.0 | 0.0 | 0.00 | 0.00 | 0.00 | 59 | 1022.7 | |
| 20260502062017 | 58 | 0.0 | 0.0 | 0.00 | 0.00 | 0.00 | 53 | 1022.7 | |
| 20260502061015 | 58 | 0.0 | 0.0 | 0.00 | 0.00 | 0.00 | 53 | 1022.7 | |
| 20260502060015 | 58 | 0.0 | 0.0 | 0.00 | 0.00 | 0.00 | 56 | 1022.6 | |
| 20260502055015 | 57 | 0.0 | 0.0 | 0.00 | 0.00 | 0.00 | 56 | 1022.7 | |
| 20260502054016 | 57 | 0.0 | 0.0 | 0.00 | 0.00 | 0.00 | 57 | 1022.8 | |
| 20260502053016 | 57 | 0.0 | 0.0 | 0.00 | 0.00 | 0.00 | 58 | 1022.9 | |
| 20260502052015 | 56 | 0.0 | 0.0 | 0.00 | 0.00 | 0.00 | 56 | 1022.8 | |
| 20260502051055 | 56 | 0.0 | 0.0 | 0.00 | 0.00 | 0.00 | 56 | 1022.7 | |
| 20260502050015 | 56 | 0.0 | 0.0 | 0.00 | 0.00 | 0.00 | 56 | 1022.7 | |
| 20260502045055 | 56 | 0.0 | 0.0 | 0.00 | 0.00 | 0.00 | 56 | 1022.5 | |
| 20260502044015 | 55 | 0.0 | 0.0 | 0.00 | 0.00 | 0.00 | 55 | 1022.4 | |
| 20260502043015 | 55 | 0.0 | 0.0 | 0.00 | 0.00 | 0.00 | 57 | 1022.4 | |
| 20260502042015 | 55 | 0.0 | 0.0 | 0.00 | 0.00 | 0.00 | 54 | 1022.5 | |
| 20260502041035 | 55 | 0.0 | 0.0 | 0.00 | 0.00 | 0.00 | 55 | 1022.6 | |
| 20260502040035 | 56 | 0.0 | 0.0 | 0.00 | 0.00 | 0.00 | 55 | 1022.6 | |
| 20260502035015 | 56 | 0.0 | 0.0 | 0.00 | 0.00 | 0.00 | 55 | 1022.7 | |
| 20260502034059 | 56 | 0.0 | 0.0 | 0.00 | 0.00 | 0.00 | 54 | 1022.6 | |
| 20260502033059 | 57 | 0.0 | 0.0 | 0.00 | 0.00 | 0.00 | 53 | 1022.6 | |
| 20260502032135 | 57 | 0.0 | 0.0 | 0.00 | 0.00 | 0.00 | 52 | 1022.6 | |
| 20260502031015 | 57 | 0.0 | 0.0 | 0.00 | 0.00 | 0.00 | 52 | 1022.6 | |
| 20260502030015 | 57 | 0.0 | 0.0 | 0.00 | 0.00 | 0.00 | 53 | 1022.6 | |
| 20260502025035 | 57 | 0.0 | 0.0 | 0.00 | 0.00 | 0.00 | 53 | 1022.6 | |
| 20260502024015 | 57 | 0.0 | 0.0 | 0.00 | 0.00 | 0.00 | 52 | 1022.7 | |
| 20260502022015 | 57 | 0.0 | 0.0 | 0.00 | 0.00 | 0.00 | 52 | 1022.8 | |
| 20260502021118 | 57 | 0.0 | 0.0 | 0.00 | 0.00 | 0.00 | 51 | 1022.8 | |
| 20260502020017 | 57 | 0.0 | 0.0 | 0.00 | 0.00 | 0.00 | 52 | 1022.8 | |
| 20260502015037 | 57 | 0.0 | 0.0 | 0.00 | 0.00 | 0.00 | 52 | 1022.7 | |
| 20260502014017 | 57 | 0.0 | 0.0 | 0.00 | 0.00 | 0.00 | 51 | 1022.7 | |
| 20260502013037 | 58 | 0.0 | 0.0 | 0.00 | 0.00 | 0.00 | 48 | 1022.7 | |
| 20260502012017 | 58 | 0.0 | 0.0 | 0.00 | 0.00 | 0.00 | 50 | 1022.9 | |
| 20260502011017 | 58 | 0.0 | 0.0 | 0.00 | 0.00 | 0.00 | 50 | 1022.8 | |
| 20260502010017 | 58 | 0.0 | 0.0 | 0.00 | 0.00 | 0.00 | 50 | 1022.7 | |
| 20260502005037 | 59 | 0.0 | 0.0 | 0.00 | 0.00 | 0.00 | 49 | 1022.7 | |
| 20260502004137 | 59 | 0.0 | 0.0 | 0.00 | 0.00 | 0.00 | 49 | 1022.8 | |
| 20260502003057 | 59 | 0.0 | 0.0 | 0.00 | 0.00 | 0.00 | 48 | 1022.8 | |
| 20260502002017 | 59 | 0.0 | 0.0 | 0.00 | 0.00 | 0.00 | 47 | 1022.8 | |
| 20260502001057 | 59 | 0.0 | 0.0 | 0.00 | 0.00 | 0.00 | 45 | 1022.9 | |
| 20260502000017 | 59 | 0.0 | 0.0 | 0.00 | 0.00 | 0.00 | 45 | 1023.0 | |
| 20260501235037 | 59 | 0.0 | 0.0 | 0.00 | 0.00 | 0.00 | 46 | 1023.1 | |
| 20260501234016 | 59 | 0.0 | 0.0 | 0.00 | 0.00 | 0.00 | 47 | 1023.1 | |
| 20260501233056 | 59 | 0.0 | 0.0 | 0.00 | 0.00 | 0.00 | 46 | 1023.1 | |
| 20260501232016 | 60 | 0.0 | 0.0 | 0.00 | 0.00 | 0.00 | 47 | 1023.2 | |
| 20260501231159 | 60 | 0.0 | 0.0 | 0.00 | 0.00 | 0.00 | 45 | 1023.1 | |
| 20260501230016 | 60 | 0.0 | 0.0 | 0.00 | 0.00 | 0.00 | 44 | 1023.1 | |
| 20260501225036 | 60 | 0.0 | 0.0 | 0.00 | 0.00 | 0.00 | 44 | 1023.2 | |
| 20260501224016 | 60 | 0.0 | 0.0 | 0.00 | 0.00 | 0.00 | 44 | 1023.1 | |
| 20260501223016 | 60 | 0.0 | 0.0 | 0.00 | 0.00 | 0.00 | 43 | 1023.1 | |
| 20260501222119 | 60 | 0.0 | 0.0 | 0.00 | 0.00 | 0.00 | 43 | 1023.1 | |
| 20260501221016 | 60 | 0.0 | 0.0 | 0.00 | 0.00 | 0.00 | 43 | 1023.0 | |
| 20260501220016 | 60 | 0.0 | 0.0 | 0.00 | 0.00 | 0.00 | 43 | 1022.9 | |
| 20260501215016 | 60 | 0.0 | 0.0 | 0.00 | 0.00 | 0.00 | 44 | 1022.9 | |
| 20260501214016 | 60 | 0.0 | 0.0 | 0.00 | 0.00 | 0.00 | 43 | 1022.8 | |
| 20260501213016 | 60 | 0.0 | 0.0 | 0.00 | 0.00 | 0.00 | 44 | 1022.8 | |
| 20260501212036 | 60 | 0.0 | 0.0 | 0.00 | 0.00 | 0.00 | 43 | 1022.8 | |
| 20260501211016 | 60 | 0.0 | 0.0 | 0.00 | 0.00 | 0.00 | 43 | 1022.8 | |
| 20260501210016 | 60 | 0.0 | 0.0 | 0.00 | 0.00 | 0.00 | 43 | 1022.7 | |
| 20260501205015 | 60 | 0.0 | 0.0 | 0.00 | 0.00 | 0.00 | 43 | 1022.7 | |
| 20260501204056 | 60 | 0.0 | 0.0 | 0.00 | 0.00 | 0.00 | 45 | 1022.7 | |
| 20260501203036 | 60 | 0.0 | 0.0 | 0.00 | 0.00 | 0.00 | 45 | 1022.8 | |
| 20260501202015 | 61 | 0.0 | 0.0 | 0.00 | 0.00 | 0.00 | 45 | 1022.8 | |
| 20260501201016 | 61 | 0.0 | 0.0 | 0.00 | 0.00 | 0.00 | 46 | 1022.7 |